カタログに戻る

OV1-9 R/B

運用中PO
NORAD 2622·ROCKET BODY·🇺🇸 United States

打ち上げ Dec 11, 1966 から Vandenberg Space Force Base

Loading…

次のパス (今後24時間)

TLE

最新Source: Space-Track

元期: Sep 14, 2026, 14:28 UTC

1 02622U 66111D   26257.60295775  .00000322  00000-0  14113-3 0  9990
2 02622  99.0933 139.8658 2219101 281.0420  55.0562 10.50062454254281

AllMySatでOV1-9 R/Bをリアルタイム追跡

Download on the App Store